Change the Weather History Date:

Sunday, October 14, 2012

  Actual Average (LGEL) Record (LGEL)
Temperature  
Mean Temperature 70 °F -  
Max Temperature 80 °F 72 °F 82 °F (2012)
Min Temperature 60 °F 57 °F 53 °F (2005)
Cooling Degree Days 5    
Growing Degree Days 20 (Base 50)    
Moisture  
Dew Point 59 °F    
Average Humidity 66    
Maximum Humidity 83    
Minimum Humidity 45    
Precipitation  
Precipitation 0.00 in - - ()
Sea Level Pressure  
Sea Level Pressure 29.95 in    
Wind  
Wind Speed 5 mph ()    
Max Wind Speed 17 mph    
Max Gust Speed 25 mph    
Visibility 6.2 miles    
Events Rain    
Averages and records for this station are not official NWS values.
T = Trace of Precipitation, MM = Missing Value Source: Averaged Metar Reports

Daily Weather History Graph

Daily Weather History Graph

Search for Another Location

Airport or City:

Trip Planner

Search our weather history database for the weather conditions in past years. The results will help you decide how hot, cold, wet, or windy it might be!

Date:

Astronomy

Oct. 14, 2012 Rise Set
Actual Time 7:31 AM EEST 6:47 PM EEST
Civil Twilight 7:05 AM EEST 7:14 PM EEST
Nautical Twilight 6:34 AM EEST 7:44 PM EEST
Astronomical Twilight 6:04 AM EEST 8:15 PM EEST
Moon 6:09 AM EEST (10/14) 5:55 PM EEST (10/14)
Length of Visible Light 12h 08m
Length of Day
11h 15m
Waning Crescent, 2% of the Moon is Illuminated
Oct 14
Waning Crescent
Oct 15
New
Oct 22
First Quarter
Oct 29
Full
Nov 7
Last Quarter

Hourly Weather History & Observations

Time (EEST) Temp. Heat Index Dew Point Humidity Pressure Visibility Wind Dir Wind Speed Gust Speed Precip Events Conditions
12:20 AM 64.4 °F - 59.0 °F 83% 29.98 in 6.2 mi Calm Calm - N/A   Scattered Clouds
12:50 AM 62.6 °F - 57.2 °F 82% 29.95 in 6.2 mi WNW 3.5 mph - N/A   Scattered Clouds
1:20 AM 64.4 °F - 57.2 °F 77% 29.95 in 6.2 mi Calm Calm - N/A   Partly Cloudy
1:50 AM 62.6 °F - 57.2 °F 82% 29.95 in 6.2 mi NW 2.3 mph - N/A   Scattered Clouds
2:20 AM 64.4 °F - 57.2 °F 77% 29.95 in 6.2 mi Variable 1.2 mph - N/A   Scattered Clouds
2:50 AM 60.8 °F - 55.4 °F 82% 29.95 in 6.2 mi WNW 3.5 mph - N/A   Scattered Clouds
3:20 AM 62.6 °F - 57.2 °F 82% 29.95 in 6.2 mi WNW 1.2 mph - N/A   Scattered Clouds
3:50 AM 60.8 °F - 53.6 °F 77% 29.95 in 6.2 mi West 3.5 mph - N/A   Partly Cloudy
4:20 AM 62.6 °F - 55.4 °F 77% 29.95 in 6.2 mi Calm Calm - N/A   Scattered Clouds
5:20 AM 62.6 °F - 55.4 °F 77% 29.95 in 6.2 mi Variable 3.5 mph - N/A   Scattered Clouds
5:50 AM 66.2 °F - 55.4 °F 68% 29.95 in 6.2 mi Calm Calm - N/A   Scattered Clouds
6:20 AM 66.2 °F - 55.4 °F 68% 29.92 in 6.2 mi Variable 2.3 mph - N/A   Mostly Cloudy
6:50 AM 68.0 °F - 57.2 °F 68% 29.95 in 6.2 mi Variable 3.5 mph - N/A   Mostly Cloudy
7:20 AM 68.0 °F - 57.2 °F 68% 29.95 in 6.2 mi Variable 2.3 mph - N/A   Mostly Cloudy
7:50 AM 68.0 °F - 57.2 °F 68% 29.95 in 6.2 mi Variable 1.2 mph - N/A   Mostly Cloudy
8:20 AM 68.0 °F - 57.2 °F 68% 29.95 in 6.2 mi Calm Calm - N/A   Mostly Cloudy
8:50 AM 69.8 °F - 59.0 °F 68% 29.95 in 6.2 mi North 2.3 mph - N/A   Mostly Cloudy
9:20 AM 71.6 °F - 60.8 °F 69% 29.95 in 6.2 mi Calm Calm - N/A   Mostly Cloudy
9:50 AM 71.6 °F - 60.8 °F 69% 29.95 in 6.2 mi North 3.5 mph - N/A   Mostly Cloudy
10:20 AM 73.4 °F - 60.8 °F 65% 29.98 in 6.2 mi Variable 2.3 mph - N/A   Mostly Cloudy
10:50 AM 75.2 °F - 62.6 °F 65% 29.98 in - SSW 8.1 mph - N/A   Clear
11:20 AM 77.0 °F - 60.8 °F 57% 29.98 in - SSW 8.1 mph - N/A   Clear
11:50 AM 78.8 °F - 59.0 °F 51% 29.95 in - SSW 8.1 mph - N/A   Clear
12:20 PM 80.6 °F 80.8 °F 57.2 °F 45% 29.95 in - SSW 8.1 mph - N/A   Clear
12:50 PM 80.6 °F 80.8 °F 57.2 °F 45% 29.95 in 6.2 mi SSW 11.5 mph - N/A   Partly Cloudy
1:20 PM 80.6 °F 81.5 °F 60.8 °F 51% 29.95 in 6.2 mi SSW 13.8 mph - N/A   Partly Cloudy
1:50 PM 80.6 °F 81.8 °F 62.6 °F 54% 29.92 in 6.2 mi SSW 15.0 mph - N/A   Scattered Clouds
2:20 PM 80.6 °F 81.8 °F 62.6 °F 54% 29.92 in 6.2 mi SSW 16.1 mph - N/A   Scattered Clouds
2:50 PM 80.6 °F 81.8 °F 62.6 °F 54% 29.92 in 6.2 mi South 17.3 mph - N/A   Scattered Clouds
3:20 PM 78.8 °F - 62.6 °F 57% 29.92 in 6.2 mi SSW 17.3 mph - N/A   Scattered Clouds
3:50 PM 78.8 °F - 62.6 °F 57% 29.92 in 6.2 mi SSW 17.3 mph - N/A   Scattered Clouds
4:20 PM 78.8 °F - 62.6 °F 57% 29.92 in 6.2 mi SSW 15.0 mph - N/A   Scattered Clouds
4:50 PM 78.8 °F - 62.6 °F 57% 29.92 in 6.2 mi South 15.0 mph - N/A   Scattered Clouds
5:20 PM 78.8 °F - 64.4 °F 61% 29.92 in 6.2 mi South 15.0 mph - N/A   Scattered Clouds
5:50 PM 77.0 °F - 64.4 °F 65% 29.92 in 6.2 mi SSW 15.0 mph - N/A   Mostly Cloudy
6:20 PM 75.2 °F - 64.4 °F 69% 29.92 in 6.2 mi SSW 15.0 mph - N/A   Mostly Cloudy
6:50 PM 75.2 °F - 64.4 °F 69% 29.92 in 6.2 mi SSW 15.0 mph - N/A   Mostly Cloudy
7:20 PM 73.4 °F - 64.4 °F 73% 29.92 in 6.2 mi SSW 13.8 mph - N/A   Mostly Cloudy
7:50 PM 75.2 °F - 66.2 °F 73% 29.95 in 6.2 mi SSW 16.1 mph - N/A   Mostly Cloudy
8:20 PM 75.2 °F - 66.2 °F 73% 29.95 in 6.2 mi SSW 16.1 mph - N/A   Mostly Cloudy
8:50 PM 73.4 °F - 57.2 °F 57% 29.95 in 6.2 mi West 15.0 mph - N/A   Mostly Cloudy
9:20 PM 73.4 °F - 55.4 °F 53% 29.98 in 6.2 mi West 9.2 mph - N/A   Mostly Cloudy
9:50 PM 71.6 °F - 53.6 °F 53% 29.98 in 6.2 mi South 3.5 mph - N/A   Mostly Cloudy
10:20 PM 73.4 °F - 55.4 °F 53% 29.98 in 6.2 mi SW 11.5 mph 25.3 mph N/A   Mostly Cloudy
10:50 PM 68.0 °F - 59.0 °F 73% 29.98 in 6.2 mi SSW 10.4 mph - N/A Rain Light Rain
11:20 PM 68.0 °F - 59.0 °F 73% 29.98 in 6.2 mi South 10.4 mph - N/A   Mostly Cloudy
11:50 PM 68.0 °F - 59.0 °F 73% 29.92 in 6.2 mi SSW 4.6 mph - N/A   Mostly Cloudy